Time,TemperatureF,DewpointF,PressureIn,WindDirection,WindDirectionDegrees,WindSpeedMPH,WindSpeedGustMPH,Humidity,HourlyPrecipIn,Conditions,Clouds,dailyrainin,SolarRadiationWatts/m^2,SoftwareType,DateUTC
2013-03-04 00:01:00,25.0,17.0,-100.00,NW,326,10.0,22.0,71,0.00,,,0.01,0.000000,,2013-03-04 05:01:00,
2013-03-04 00:11:00,25.0,17.0,-100.00,NW,326,10.0,22.0,71,0.00,,,0.01,0.000000,,2013-03-04 05:11:00,
2013-03-04 00:43:00,25.0,18.0,-100.00,NW,323,10.0,19.0,74,0.00,,,0.01,0.000000,,2013-03-04 05:43:00,
2013-03-04 00:52:00,25.0,18.0,-100.00,NW,323,10.0,19.0,74,0.00,,,0.01,0.000000,,2013-03-04 05:52:00,
2013-03-04 01:02:00,25.0,18.0,-100.00,NW,323,10.0,19.0,74,0.00,,,0.01,0.000000,,2013-03-04 06:02:00,
2013-03-04 01:11:00,25.0,18.0,-100.00,NW,323,10.0,19.0,74,0.00,,,0.01,0.000000,,2013-03-04 06:11:00,
2013-03-04 01:32:00,25.0,18.0,-100.00,NW,326,9.0,18.0,74,0.00,,,0.01,0.000000,,2013-03-04 06:32:00,
2013-03-04 01:42:00,25.0,18.0,-100.00,NW,326,9.0,18.0,74,0.00,,,0.01,0.000000,,2013-03-04 06:42:00,
2013-03-04 01:52:00,25.0,18.0,-100.00,NW,326,9.0,18.0,74,0.00,,,0.01,0.000000,,2013-03-04 06:52:00,
2013-03-04 02:02:00,25.0,18.0,-100.00,NW,326,9.0,18.0,74,0.00,,,0.01,0.000000,,2013-03-04 07:02:00,
2013-03-04 02:11:00,25.0,18.0,-100.00,NW,326,9.0,18.0,74,0.00,,,0.01,0.000000,,2013-03-04 07:11:00,
2013-03-04 02:32:00,25.0,18.0,-100.00,NW,326,8.0,17.0,74,0.00,,,0.01,0.000000,,2013-03-04 07:32:00,
2013-03-04 02:42:00,25.0,18.0,-100.00,NW,326,8.0,17.0,74,0.00,,,0.01,0.000000,,2013-03-04 07:42:00,
2013-03-04 02:52:00,25.0,18.0,-100.00,NW,326,8.0,17.0,74,0.00,,,0.01,0.000000,,2013-03-04 07:52:00,
2013-03-04 03:02:00,25.0,18.0,-100.00,NW,326,8.0,17.0,74,0.00,,,0.01,0.000000,,2013-03-04 08:02:00,
2013-03-04 03:12:00,25.0,18.0,-100.00,NW,326,8.0,17.0,74,0.00,,,0.01,0.000000,,2013-03-04 08:12:00,
2013-03-04 03:42:00,25.0,17.0,-100.00,NNW,328,9.0,18.0,70,0.00,,,0.01,0.000000,,2013-03-04 08:42:00,
2013-03-04 03:52:00,25.0,17.0,-100.00,NNW,328,9.0,18.0,70,0.00,,,0.01,0.000000,,2013-03-04 08:52:00,
2013-03-04 04:02:00,25.0,17.0,-100.00,NNW,328,9.0,18.0,70,0.00,,,0.01,0.000000,,2013-03-04 09:02:00,
2013-03-04 04:11:00,25.0,17.0,-100.00,NNW,328,9.0,18.0,70,0.00,,,0.01,0.000000,,2013-03-04 09:11:00,
2013-03-04 04:32:00,26.0,19.0,-100.00,NW,316,7.0,20.0,75,0.00,,,0.01,0.000000,,2013-03-04 09:32:00,
2013-03-04 04:42:00,26.0,19.0,-100.00,NW,316,7.0,20.0,75,0.00,,,0.01,0.000000,,2013-03-04 09:42:00,
2013-03-04 04:52:00,26.0,19.0,-100.00,NW,316,7.0,20.0,75,0.00,,,0.01,0.000000,,2013-03-04 09:52:00,
2013-03-04 05:01:00,26.0,19.0,-100.00,NW,316,7.0,20.0,75,0.00,,,0.01,0.000000,,2013-03-04 10:01:00,
2013-03-04 05:12:00,26.0,19.0,-100.00,NW,316,7.0,20.0,75,0.00,,,0.01,0.000000,,2013-03-04 10:12:00,
2013-03-04 05:32:00,26.0,19.0,-100.00,NNW,332,12.0,20.0,75,0.00,,,0.01,0.000000,,2013-03-04 10:32:00,
2013-03-04 05:42:00,26.0,19.0,-100.00,NNW,332,12.0,20.0,75,0.00,,,0.01,0.000000,,2013-03-04 10:42:00,
2013-03-04 05:52:00,26.0,19.0,-100.00,NNW,332,12.0,20.0,75,0.00,,,0.01,0.000000,,2013-03-04 10:52:00,
2013-03-04 06:02:00,26.0,19.0,-100.00,NNW,332,12.0,20.0,75,0.00,,,0.01,0.000000,,2013-03-04 11:02:00,
2013-03-04 06:11:00,26.0,19.0,-100.00,NNW,332,12.0,20.0,75,0.00,,,0.01,0.000000,,2013-03-04 11:11:00,
2013-03-04 06:32:00,26.0,19.0,-100.00,NW,324,11.0,24.0,75,0.00,,,0.01,0.000000,,2013-03-04 11:32:00,
2013-03-04 06:42:00,26.0,19.0,-100.00,NW,324,11.0,24.0,75,0.00,,,0.01,0.000000,,2013-03-04 11:42:00,
2013-03-04 06:52:00,26.0,19.0,-100.00,NW,324,11.0,24.0,75,0.00,,,0.01,0.000000,,2013-03-04 11:52:00,
2013-03-04 07:02:00,26.0,19.0,-100.00,NW,324,11.0,24.0,75,0.00,,,0.01,0.000000,,2013-03-04 12:02:00,
2013-03-04 07:11:00,26.0,19.0,-100.00,NW,324,11.0,24.0,75,0.00,,,0.01,0.000000,,2013-03-04 12:11:00,
2013-03-04 07:32:00,26.0,20.0,-100.00,NW,324,9.0,28.0,77,0.00,,,0.01,2.000000,,2013-03-04 12:32:00,
2013-03-04 07:43:00,26.0,20.0,-100.00,NW,324,9.0,28.0,77,0.00,,,0.01,2.000000,,2013-03-04 12:43:00,
2013-03-04 07:53:00,26.0,20.0,-100.00,NW,324,9.0,28.0,77,0.00,,,0.01,2.000000,,2013-03-04 12:53:00,
2013-03-04 08:02:00,26.0,20.0,-100.00,NW,324,9.0,28.0,77,0.00,,,0.01,2.000000,,2013-03-04 13:02:00,
2013-03-04 08:11:00,26.0,20.0,-100.00,NW,324,9.0,28.0,77,0.00,,,0.01,2.000000,,2013-03-04 13:11:00,
2013-03-04 08:42:00,27.0,19.0,-100.00,NW,323,11.0,25.0,71,0.00,,,0.01,12.000000,,2013-03-04 13:42:00,
2013-03-04 08:52:00,27.0,19.0,-100.00,NW,323,11.0,25.0,71,0.00,,,0.01,12.000000,,2013-03-04 13:52:00,
2013-03-04 09:01:00,27.0,19.0,-100.00,NW,323,11.0,25.0,71,0.00,,,0.01,12.000000,,2013-03-04 14:01:00,
2013-03-04 09:12:00,27.0,19.0,-100.00,NW,323,11.0,25.0,71,0.00,,,0.01,12.000000,,2013-03-04 14:12:00,
2013-03-04 09:42:00,28.0,18.0,-100.00,NNW,328,14.0,27.0,67,0.00,,,0.01,46.000000,,2013-03-04 14:42:00,
2013-03-04 09:52:00,28.0,18.0,-100.00,NNW,328,14.0,27.0,67,0.00,,,0.01,46.000000,,2013-03-04 14:52:00,
2013-03-04 10:02:00,28.0,18.0,-100.00,NNW,328,14.0,27.0,67,0.00,,,0.01,46.000000,,2013-03-04 15:02:00,
2013-03-04 10:11:00,28.0,18.0,-100.00,NNW,328,14.0,27.0,67,0.00,,,0.01,46.000000,,2013-03-04 15:11:00,
2013-03-04 10:42:00,28.0,17.0,-100.00,NW,321,16.0,31.0,63,0.00,,,0.01,92.000000,,2013-03-04 15:42:00,
2013-03-04 10:52:00,28.0,17.0,-100.00,NW,321,16.0,31.0,63,0.00,,,0.01,92.000000,,2013-03-04 15:52:00,
2013-03-04 11:03:00,28.0,17.0,-100.00,NW,321,16.0,31.0,63,0.00,,,0.01,92.000000,,2013-03-04 16:03:00,
2013-03-04 11:11:00,28.0,17.0,-100.00,NW,321,16.0,31.0,63,0.00,,,0.01,92.000000,,2013-03-04 16:11:00,
2013-03-04 11:42:00,29.0,18.0,-100.00,NW,320,14.0,30.0,63,0.00,,,0.01,159.000000,,2013-03-04 16:42:00,
2013-03-04 11:52:00,29.0,18.0,-100.00,NW,320,14.0,30.0,63,0.00,,,0.01,159.000000,,2013-03-04 16:52:00,
2013-03-04 12:02:00,29.0,18.0,-100.00,NW,320,14.0,30.0,63,0.00,,,0.01,159.000000,,2013-03-04 17:02:00,
2013-03-04 12:11:00,29.0,18.0,-100.00,NW,320,14.0,30.0,63,0.00,,,0.01,159.000000,,2013-03-04 17:11:00,
2013-03-04 12:42:00,29.0,18.0,-100.00,NW,323,14.0,32.0,62,0.00,,,0.00,127.000000,,2013-03-04 17:42:00,
2013-03-04 12:52:00,29.0,18.0,-100.00,NW,323,14.0,32.0,62,0.00,,,0.00,127.000000,,2013-03-04 17:52:00,
2013-03-04 13:02:00,29.0,18.0,-100.00,NW,323,14.0,32.0,62,0.00,,,0.00,127.000000,,2013-03-04 18:02:00,
2013-03-04 13:11:00,29.0,18.0,-100.00,NW,323,14.0,32.0,62,0.00,,,0.00,127.000000,,2013-03-04 18:11:00,
2013-03-04 13:42:00,30.0,18.0,-100.00,NW,326,13.0,29.0,61,0.00,,,0.00,158.000000,,2013-03-04 18:42:00,
2013-03-04 13:52:00,30.0,18.0,-100.00,NW,326,13.0,29.0,61,0.00,,,0.00,158.000000,,2013-03-04 18:52:00,
2013-03-04 14:02:00,30.0,18.0,-100.00,NW,326,13.0,29.0,61,0.00,,,0.00,158.000000,,2013-03-04 19:02:00,
2013-03-04 14:12:00,30.0,18.0,-100.00,NW,326,13.0,29.0,61,0.00,,,0.00,158.000000,,2013-03-04 19:12:00,
2013-03-04 14:42:00,30.0,18.0,-100.00,NW,313,15.0,28.0,61,0.00,,,0.00,147.000000,,2013-03-04 19:42:00,
2013-03-04 14:52:00,30.0,18.0,-100.00,NW,313,15.0,28.0,61,0.00,,,0.00,147.000000,,2013-03-04 19:52:00,
2013-03-04 15:02:00,30.0,18.0,-100.00,NW,313,15.0,28.0,61,0.00,,,0.00,147.000000,,2013-03-04 20:02:00,
2013-03-04 15:12:00,30.0,18.0,-100.00,NW,313,15.0,28.0,61,0.00,,,0.00,147.000000,,2013-03-04 20:12:00,
2013-03-04 15:42:00,30.0,18.0,-100.00,NW,323,16.0,29.0,61,0.00,,,0.00,156.000000,,2013-03-04 20:42:00,
2013-03-04 15:53:00,30.0,18.0,-100.00,NW,323,16.0,29.0,61,0.00,,,0.00,156.000000,,2013-03-04 20:53:00,
2013-03-04 16:02:00,30.0,18.0,-100.00,NW,323,16.0,29.0,61,0.00,,,0.00,156.000000,,2013-03-04 21:02:00,
2013-03-04 16:12:00,30.0,18.0,-100.00,NW,323,16.0,29.0,61,0.00,,,0.00,156.000000,,2013-03-04 21:12:00,
2013-03-04 16:32:00,29.0,18.0,-100.00,NW,324,13.0,30.0,64,0.00,,,0.00,65.000000,,2013-03-04 21:32:00,
2013-03-04 16:43:00,29.0,18.0,-100.00,NW,324,13.0,30.0,64,0.00,,,0.00,65.000000,,2013-03-04 21:43:00,
2013-03-04 16:53:00,29.0,18.0,-100.00,NW,324,13.0,30.0,64,0.00,,,0.00,65.000000,,2013-03-04 21:53:00,
2013-03-04 17:02:00,29.0,18.0,-100.00,NW,324,13.0,30.0,64,0.00,,,0.00,65.000000,,2013-03-04 22:02:00,
2013-03-04 17:12:00,29.0,18.0,-100.00,NW,324,13.0,30.0,64,0.00,,,0.00,65.000000,,2013-03-04 22:12:00,
2013-03-04 17:43:00,29.0,18.0,-100.00,NW,324,15.0,31.0,62,0.00,,,0.00,21.000000,,2013-03-04 22:43:00,
2013-03-04 17:52:00,29.0,18.0,-100.00,NW,324,15.0,31.0,62,0.00,,,0.00,21.000000,,2013-03-04 22:52:00,
2013-03-04 18:02:00,29.0,18.0,-100.00,NW,324,15.0,31.0,62,0.00,,,0.00,21.000000,,2013-03-04 23:02:00,
2013-03-04 18:11:00,29.0,18.0,-100.00,NW,324,15.0,31.0,62,0.00,,,0.00,21.000000,,2013-03-04 23:11:00,
2013-03-04 18:32:00,29.0,19.0,-100.00,NNW,330,14.0,29.0,66,0.00,,,0.00,3.000000,,2013-03-04 23:32:00,
2013-03-04 18:42:00,29.0,19.0,-100.00,NNW,330,14.0,29.0,66,0.00,,,0.00,3.000000,,2013-03-04 23:42:00,
2013-03-04 18:52:00,29.0,19.0,-100.00,NNW,330,14.0,29.0,66,0.00,,,0.00,3.000000,,2013-03-04 23:52:00,
2013-03-04 19:02:00,29.0,19.0,-100.00,NNW,330,14.0,29.0,66,0.00,,,0.00,3.000000,,2013-03-05 00:02:00,
2013-03-04 19:12:00,29.0,19.0,-100.00,NNW,330,14.0,29.0,66,0.00,,,0.00,3.000000,,2013-03-05 00:12:00,
2013-03-04 19:42:00,29.0,20.0,-100.00,NNW,334,14.0,31.0,69,0.00,,,0.00,0.000000,,2013-03-05 00:42:00,
2013-03-04 19:52:00,29.0,20.0,-100.00,NNW,334,14.0,31.0,69,0.00,,,0.00,0.000000,,2013-03-05 00:52:00,
2013-03-04 20:02:00,29.0,20.0,-100.00,NNW,334,14.0,31.0,69,0.00,,,0.00,0.000000,,2013-03-05 01:02:00,
2013-03-04 20:12:00,29.0,20.0,-100.00,NNW,334,14.0,31.0,69,0.00,,,0.00,0.000000,,2013-03-05 01:12:00,
2013-03-04 20:42:00,28.0,23.0,-100.00,NNW,340,10.0,27.0,80,0.00,,,0.00,0.000000,,2013-03-05 01:42:00,
2013-03-04 20:52:00,28.0,23.0,-100.00,NNW,340,10.0,27.0,80,0.00,,,0.00,0.000000,,2013-03-05 01:52:00,
2013-03-04 21:02:00,28.0,23.0,-100.00,NNW,340,10.0,27.0,80,0.00,,,0.00,0.000000,,2013-03-05 02:02:00,
2013-03-04 21:12:00,28.0,23.0,-100.00,NNW,340,10.0,27.0,80,0.00,,,0.00,0.000000,,2013-03-05 02:12:00,
2013-03-04 21:42:00,28.0,21.0,-100.00,NW,324,6.0,15.0,74,0.00,,,0.00,0.000000,,2013-03-05 02:42:00,
2013-03-04 21:53:00,28.0,21.0,-100.00,NW,324,6.0,15.0,74,0.00,,,0.00,0.000000,,2013-03-05 02:53:00,
2013-03-04 22:02:00,28.0,21.0,-100.00,NW,324,6.0,15.0,74,0.00,,,0.00,0.000000,,2013-03-05 03:02:00,
2013-03-04 22:12:00,28.0,21.0,-100.00,NW,324,6.0,15.0,74,0.00,,,0.00,0.000000,,2013-03-05 03:12:00,
2013-03-04 22:32:00,29.0,21.0,-100.00,NNW,332,8.0,15.0,71,0.00,,,0.00,0.000000,,2013-03-05 03:32:00,
2013-03-04 22:42:00,29.0,21.0,-100.00,NNW,332,8.0,15.0,71,0.00,,,0.00,0.000000,,2013-03-05 03:42:00,
2013-03-04 22:52:00,29.0,21.0,-100.00,NNW,332,8.0,15.0,71,0.00,,,0.00,0.000000,,2013-03-05 03:52:00,
2013-03-04 23:02:00,29.0,21.0,-100.00,NNW,332,8.0,15.0,71,0.00,,,0.00,0.000000,,2013-03-05 04:02:00,
2013-03-04 23:12:00,29.0,21.0,-100.00,NNW,332,8.0,15.0,71,0.00,,,0.00,0.000000,,2013-03-05 04:12:00,
2013-03-04 23:32:00,29.0,21.0,-100.00,NNW,332,7.0,17.0,72,0.00,,,0.00,0.000000,,2013-03-05 04:32:00,
2013-03-04 23:42:00,29.0,21.0,-100.00,NNW,332,7.0,17.0,72,0.00,,,0.00,0.000000,,2013-03-05 04:42:00,
2013-03-04 23:52:00,29.0,21.0,-100.00,NNW,332,7.0,17.0,72,0.00,,,0.00,0.000000,,2013-03-05 04:52:00,